EW4719 Weather Reports


Display with metric or nautical units.
time (UTC)temp
F
wind
direction
speed
MPH
gust
MPH
rain 1hr
in
rain 24hr
in
rain mn
in
humidity
%
barometer
mb
20260507003119 44 207 6.0 14.0 0.00 0.00 0.00 68 1013.5
20260507001505 44 206 5.0 12.0 0.00 0.00 0.00 68 1013.5
20260507000005 43 164 7.0 15.0 0.00 0.00 0.00 70 1013.6
20260506234539 43 185 7.0 15.0 0.00 0.00 0.00 70 1013.6
20260506233100 43 192 8.0 18.0 0.00 0.00 0.00 70 1013.7
20260506231557 43 175 7.0 17.0 0.00 0.00 0.00 70 1013.9
20260506230109 43 171 6.0 15.0 0.00 0.00 0.00 70 1013.9
20260506224601 43 166 6.0 13.0 0.00 0.00 0.00 70 1013.9
20260506223133 44 161 6.0 13.0 0.00 0.00 0.00 69 1014.0
20260506221539 44 195 5.0 11.0 0.00 0.00 0.00 70 1014.1
20260506220059 43 159 4.0 14.0 0.00 0.00 0.00 72 1014.2
20260506214610 43 138 4.0 9.0 0.00 0.00 0.00 72 1014.2
20260506213002 43 164 4.0 10.0 0.00 0.00 0.00 71 1014.1
20260506211559 44 150 6.0 12.0 0.00 0.00 0.00 70 1014.3
20260506210113 44 157 5.0 10.0 0.00 0.00 0.00 70 1014.4
20260506204507 44 136 4.0 9.0 0.00 0.00 0.00 70 1014.4
20260506203014 45 154 5.0 11.0 0.00 0.00 0.00 70 1014.4
20260506201558 45 125 5.0 9.0 0.00 0.00 0.00 70 1014.4
20260506200108 45 141 4.0 8.0 0.00 0.00 0.00 70 1014.5
20260506194503 46 103 3.0 8.0 0.00 0.00 0.00 68 1014.6
20260506193004 46 164 4.0 8.0 0.00 0.00 0.00 67 1014.4
20260506191547 47 146 3.0 8.0 0.00 0.00 0.00 66 1014.4
20260506190108 47 168 4.0 10.0 0.00 0.00 0.00 64 1014.3
20260506184609 47 111 3.0 9.0 0.00 0.00 0.00 65 1014.3
20260506183121 48 154 3.0 10.0 0.00 0.00 0.00 64 1014.3
20260506181518 48 101 5.0 11.0 0.00 0.00 0.00 63 1014.3
20260506180057 48 127 3.0 10.0 0.00 0.00 0.00 61 1014.3
20260506174558 49 115 3.0 8.0 0.00 0.00 0.00 61 1014.3
20260506173111 49 155 3.0 8.0 0.00 0.00 0.00 60 1014.2
20260506171502 49 67 2.0 6.0 0.00 0.00 0.00 58 1014.3
20260506170108 50 148 2.0 7.0 0.00 0.00 0.00 57 1014.3
20260506164545 50 10 2.0 5.0 0.00 0.00 0.00 57 1014.4
20260506163112 51 134 2.0 6.0 0.00 0.00 0.00 55 1014.4
20260506161602 52 87 2.0 9.0 0.00 0.00 0.00 54 1014.6
20260506160125 50 104 2.0 10.0 0.00 0.00 0.00 57 1014.7
20260506154529 51 86 3.0 11.0 0.00 0.00 0.00 56 1014.7
20260506153010 51 338 2.0 10.0 0.00 0.00 0.00 59 1014.9
20260506151545 49 348 5.0 12.0 0.00 0.00 0.00 65 1015.1
20260506150056 49 42 6.0 12.0 0.00 0.00 0.00 65 1015.3
20260506144600 49 74 5.0 14.0 0.00 0.00 0.00 64 1015.4
20260506143114 50 63 4.0 12.0 0.00 0.00 0.00 63 1015.5
20260506141510 49 53 5.0 12.0 0.00 0.00 0.00 62 1015.7
20260506140007 49 52 7.0 13.0 0.00 0.00 0.00 62 1015.6
20260506134539 49 77 5.0 15.0 0.00 0.00 0.00 62 1015.8
20260506133009 50 74 5.0 13.0 0.00 0.00 0.00 60 1015.9
20260506131541 50 355 3.0 13.0 0.00 0.00 0.00 61 1015.9
20260506130009 49 89 2.0 12.0 0.00 0.00 0.00 62 1015.9
20260506124549 51 317 4.0 10.0 0.00 0.00 0.00 61 1016.0
20260506123107 49 68 3.0 11.0 0.00 0.00 0.00 64 1015.9
20260506121553 50 57 3.0 11.0 0.00 0.00 0.00 62 1015.9
20260506120122 49 360 4.0 10.0 0.00 0.00 0.00 64 1016.0
20260506114611 50 66 5.0 10.0 0.00 0.00 0.00 63 1016.1
20260506113127 50 74 5.0 11.0 0.00 0.00 0.00 64 1016.3
20260506111503 49 68 3.0 8.0 0.00 0.00 0.00 67 1016.4
20260506110045 48 148 1.0 6.0 0.00 0.00 0.00 67 1016.5
20260506104541 49 78 5.0 11.0 0.00 0.00 0.00 65 1016.6
20260506103114 48 114 2.0 8.0 0.00 0.00 0.00 65 1016.7
20260506101552 48 148 3.0 10.0 0.00 0.00 0.00 61 1016.7
20260506100101 48 114 1.0 7.0 0.00 0.00 0.00 63 1016.8
20260506094604 46 33 3.0 9.0 0.00 0.00 0.00 68 1016.9
20260506093114 46 82 4.0 9.0 0.00 0.00 0.00 68 1017.0
20260506091608 47 101 0.0 8.0 0.00 0.00 0.00 62 1017.0
20260506090120 46 124 1.0 9.0 0.00 0.00 0.00 66 1017.1
20260506084507 45 74 0.0 3.0 0.00 0.00 0.00 70 1017.2
20260506083008 44 69 2.0 8.0 0.00 0.00 0.00 69 1017.3
20260506081542 44 53 1.0 5.0 0.00 0.00 0.00 69 1017.4
20260506073102 42 68 0.0 3.0 0.00 0.00 0.00 72 1017.4
20260506071546 42 69 2.0 5.0 0.00 0.00 0.00 73 1017.4
20260506061554 40 76 0.0 3.0 0.00 0.00 0.00 75 1017.3
20260506050124 36 76 0.0 0.0 0.00 0.00 0.00 79 1017.3
20260506044606 37 76 0.0 1.0 0.00 0.00 0.00 79 1017.3
20260506043129 37 76 0.0 0.0 0.00 0.00 0.00 78 1017.2
20260506041524 37 76 0.0 1.0 0.00 0.00 0.00 78 1017.1
20260506040106 38 76 0.0 0.0 0.00 0.00 0.00 78 1017.1
20260506034601 38 76 0.0 0.0 0.00 0.00 0.00 78 1017.1
20260506033127 38 76 0.0 0.0 0.00 0.00 0.00 78 1017.2
20260506031522 38 76 0.0 0.0 0.00 0.00 0.00 79 1017.3
20260506030057 38 76 0.0 1.0 0.00 0.00 0.00 79 1017.4
20260506024557 38 76 0.0 0.0 0.00 0.00 0.00 80 1017.4
20260506023117 38 76 0.0 0.0 0.00 0.00 0.00 79 1017.4
20260506021518 38 76 0.0 1.0 0.00 0.00 0.00 79 1017.3
20260506020132 38 76 0.0 2.0 0.00 0.00 0.00 79 1017.4
20260506014530 39 76 0.0 2.0 0.00 0.00 0.00 79 1017.5
20260506013014 39 76 0.0 0.0 0.00 0.00 0.00 80 1017.6
20260506011602 38 76 0.0 1.0 0.00 0.00 0.00 81 1017.7
20260506010121 38 76 0.0 1.0 0.00 0.00 0.00 81 1017.8
20260506004527 38 76 0.0 1.0 0.00 0.00 0.00 81 1017.8